Location: Hopkins Observatory
(42.6965°N, 73.1843°W)
Time: 22:02:01
(UTC-04:00)

Amateur Radio Satellites - All Passes

Search period start: 14 September 2014 21:32
Search period end: 15 September 2014 21:32
Location: Hopkins Observatory, 42.6965°N, 73.1843°W

Satellite Date Start Highest point End Downlink Frequencies (MHz)
Time Altitude Azimuth
UKube-1 14 Sep 21:35:21 21:39:41 85° 256° (WSW) 21:44:03 145.840 MHz, 145.915 MHz
PCSat 14 Sep 21:43:09 21:47:59 31° 49° (NE) 21:52:46 145.825 MHz
HO-68 14 Sep 22:33:20 22:38:37 22° 268° (W) 22:43:57 435.675 MHz FM
FUNcube-1 14 Sep 22:35:14 22:39:33 73° 258° (WSW) 22:44:02 145.950 - 145.970 MHz USB
Sapphire 14 Sep 22:58:31 23:03:57 78° 242° (WSW) 23:09:22 437.095 MHz 1200 baud AX-25 AFSK
Oscar 11 14 Sep 23:02:20 23:05:00 16° 269° (W) 23:07:41 145.825 FM, Beacon 2401.500 USB
KITSAT 1 14 Sep 23:08:48 23:15:12 25° 326° (NW) 23:21:38 435.175 FM
SO-50 14 Sep 23:10:06 23:13:46 25° 113° (ESE) 23:17:30 436.795 FM
PCSat 14 Sep 23:26:25 23:31:31 43° 248° (WSW) 23:36:35 145.825 MHz
Sapphire 15 Sep 00:46:19 00:46:26 10° 259° (W) 00:46:32 437.095 MHz 1200 baud AX-25 AFSK
SO-50 15 Sep 00:49:54 00:54:07 39° 311° (NW) 00:58:28 436.795 FM
KITSAT 1 15 Sep 01:10:49 01:14:10 13° 355° (N) 01:17:31 435.175 FM
UOSAT-12 15 Sep 01:16:44 01:21:02 40° 116° (ESE) 01:25:25 437.025 FM, 437.400 FM
Oscar 16 15 Sep 01:25:07 01:28:47 19° 92° (E) 01:32:24 437.025 USB, Beacon 2401.1428
Saudisat 1A 15 Sep 01:35:22 01:37:08 12° 34° (NNE) 01:38:53 436.775 MHz
ITAMSAT 1 15 Sep 01:57:53 02:01:02 16° 91° (E) 02:04:10 435.822 SSB
Uribyol 2 15 Sep 02:03:03 02:06:44 19° 92° (E) 02:10:25 436.500 FM
JAS-1B 15 Sep 02:07:40 02:12:09 22° 92° (E) 02:16:28 435.800 - 435.900 CW/SSB
AO-Echo 15 Sep 02:20:00 02:24:09 29° 96° (E) 02:28:23 ?
Oscar 19 15 Sep 02:25:23 02:30:34 68° 102° (ESE) 02:35:41 437.125 CW, 437.150 USB
AO-27 15 Sep 02:30:19 02:34:59 33° 97° (E) 02:39:38 436.795 MHz FM
Gurwin Techsat 1B 15 Sep 02:53:36 02:58:01 26° 94° (E) 03:02:23 435.225 FM
UOSAT-12 15 Sep 02:57:14 03:01:17 29° 315° (NW) 03:05:25 437.025 FM, 437.400 FM
Oscar 16 15 Sep 03:03:24 03:08:27 54° 289° (WNW) 03:13:28 437.025 USB, Beacon 2401.1428
KITSAT 1 15 Sep 03:08:03 03:13:32 19° 26° (NNE) 03:19:01 435.175 FM
Saudisat 1A 15 Sep 03:13:10 03:17:34 65° 54° (NE) 03:21:57 436.775 MHz
OPAL 15 Sep 03:16:06 03:19:33 18° 58° (ENE) 03:23:02 ?
TMSAT-1 15 Sep 03:33:38 03:38:43 44° 99° (E) 03:43:45 436.925 FM
ITAMSAT 1 15 Sep 03:35:48 03:40:58 65° 287° (WNW) 03:46:07 435.822 SSB
Uribyol 2 15 Sep 03:41:27 03:46:32 55° 289° (WNW) 03:51:37 436.500 FM
AO-7 15 Sep 03:52:03 03:57:45 20° 91° (E) 04:03:23 29.400 - 29.500 MHz
JAS-1B 15 Sep 03:57:34 04:03:15 48° 292° (WNW) 04:08:39 435.800 - 435.900 CW/SSB
AO-Echo 15 Sep 03:58:42 04:02:55 32° 292° (WNW) 04:07:13 ?
RS-15 15 Sep 04:04:03 04:13:07 31° 105° (ESE) 04:22:02 29.354 - 29.394 USB, Beacon 29.352 USB
Oscar 19 15 Sep 04:06:05 04:09:20 17° 300° (WNW) 04:12:35 437.125 CW, 437.150 USB
ISS 15 Sep 04:06:25 04:09:07 23° 135° (SE) 04:11:50 145.800 FM
AO-27 15 Sep 04:09:51 04:14:27 33° 293° (WNW) 04:19:03 436.795 MHz FM
Gurwin Techsat 1B 15 Sep 04:33:08 04:38:07 42° 291° (WNW) 04:43:04 435.225 FM
OPAL 15 Sep 04:52:47 04:57:54 65° 256° (WSW) 05:03:06 ?
Saudisat 1A 15 Sep 04:54:19 04:56:37 14° 251° (WSW) 04:58:55 436.775 MHz
KITSAT 1 15 Sep 05:02:57 05:10:55 57° 52° (NE) 05:18:49 435.175 FM
Uosat F 15 Sep 05:03:39 05:08:35 54° 101° (E) 05:13:29 435.120 FM
TMSAT-1 15 Sep 05:14:05 05:18:22 26° 296° (WNW) 05:22:39 436.925 FM
STRAND 1 15 Sep 05:27:43 05:30:49 17° 60° (ENE) 05:33:56 ?
ISS 15 Sep 05:42:25 05:45:39 48° 332° (NNW) 05:48:55 145.800 FM
AO-7 15 Sep 05:43:09 05:51:29 86° 289° (WNW) 05:59:46 29.400 - 29.500 MHz
RS-15 15 Sep 06:13:22 06:24:25 75° 306° (NW) 06:35:24 29.354 - 29.394 USB, Beacon 29.352 USB
Hamsat 15 Sep 06:19:52 06:23:50 36° 97° (E) 06:27:45 145.90 MHz
Uosat F 15 Sep 06:43:24 06:46:58 20° 298° (WNW) 06:50:31 435.120 FM
JAS-2 15 Sep 06:47:31 06:53:18 73° 103° (ESE) 06:59:49 435.800 - 435.900 CW/SSB, 435.910 FM
KITSAT 1 15 Sep 06:58:52 07:05:58 35° 252° (WSW) 07:13:02 435.175 FM
STRAND 1 15 Sep 07:04:24 07:09:27 68° 258° (WSW) 07:14:33 ?
ISS 15 Sep 07:20:30 07:22:58 19° 352° (N) 07:25:25 145.800 FM
AO-7 15 Sep 07:37:21 07:43:10 22° 310° (NW) 07:48:59 29.400 - 29.500 MHz
SO-50 15 Sep 07:40:08 07:44:29 33° 47° (NE) 07:48:52 436.795 FM
Hamsat 15 Sep 07:56:22 07:59:34 21° 294° (WNW) 08:02:44 145.90 MHz
UOSAT-12 15 Sep 08:08:06 08:08:36 10° 29° (NNE) 08:09:06 437.025 FM, 437.400 FM
SO-67 15 Sep 08:08:52 08:12:20 83° 283° (WNW) 08:15:46 435.3500 MHz FM
HO-68 15 Sep 08:14:01 08:15:46 11° 86° (E) 08:17:31 435.675 MHz FM
RS-15 15 Sep 08:29:47 08:38:56 29° 335° (NNW) 08:48:11 29.354 - 29.394 USB, Beacon 29.352 USB
JAS-2 15 Sep 08:34:05 08:37:57 19° 298° (WNW) 08:42:04 435.800 - 435.900 CW/SSB, 435.910 FM
MaSat-1 15 Sep 08:40:29 08:44:06 20° 103° (ESE) 08:47:44 437.345 MHz
ISS 15 Sep 08:57:57 09:00:33 20° 12° (NNE) 09:03:08 145.800 FM
SO-50 15 Sep 09:20:41 09:25:04 35° 244° (WSW) 09:29:28 436.795 FM
UKube-1 15 Sep 09:24:11 09:26:46 15° 92° (E) 09:29:20 145.840 MHz, 145.915 MHz
UOSAT-12 15 Sep 09:45:27 09:50:00 44° 50° (NE) 09:54:28 437.025 FM, 437.400 FM
HO-68 15 Sep 09:57:32 10:04:42 69° 104° (ESE) 10:11:51 435.675 MHz FM
MaSat-1 15 Sep 10:15:36 10:20:33 55° 300° (WNW) 10:25:29 437.345 MHz
FUNcube-1 15 Sep 10:24:13 10:27:50 22° 93° (E) 10:31:25 145.950 - 145.970 MHz USB
ISS 15 Sep 10:34:25 10:37:44 66° 31° (NNE) 10:41:03 145.800 FM
Oscar 11 15 Sep 10:47:08 10:51:31 90° 77° (ENE) 10:55:51 145.825 FM, Beacon 2401.500 USB
RS-15 15 Sep 10:47:50 10:56:11 24° 11° (N) 11:04:41 29.354 - 29.394 USB, Beacon 29.352 USB
UKube-1 15 Sep 10:59:02 11:03:15 50° 288° (WNW) 11:07:27 145.840 MHz, 145.915 MHz
UOSAT-12 15 Sep 11:26:07 11:29:53 24° 248° (WSW) 11:33:36 437.025 FM, 437.400 FM
HO-68 15 Sep 11:46:12 11:51:48 26° 303° (WNW) 11:57:25 435.675 MHz FM
MaSat-1 15 Sep 11:57:32 11:58:25 10° 319° (NW) 11:59:18 437.345 MHz
FUNcube-1 15 Sep 12:00:02 12:04:20 39° 290° (WNW) 12:08:36 145.950 - 145.970 MHz USB
Sapphire 15 Sep 12:02:02 12:03:37 11° 102° (ESE) 12:05:12 437.095 MHz 1200 baud AX-25 AFSK
Oscar 19 15 Sep 12:06:42 12:09:29 15° 59° (ENE) 12:12:17 437.125 CW, 437.150 USB
ISS 15 Sep 12:11:59 12:14:07 16° 228° (SW) 12:16:16 145.800 FM
PCSat 15 Sep 12:26:45 12:30:49 22° 107° (ESE) 12:34:53 145.825 MHz
Oscar 16 15 Sep 12:42:34 12:47:04 31° 66° (ENE) 12:51:35 437.025 USB, Beacon 2401.1428
JAS-1B 15 Sep 12:51:47 12:59:04 32° 63° (ENE) 13:05:24 435.800 - 435.900 CW/SSB
RS-15 15 Sep 13:01:32 13:12:10 49° 43° (NE) 13:23:07 29.354 - 29.394 USB, Beacon 29.352 USB
ITAMSAT 1 15 Sep 13:16:20 13:20:36 27° 65° (ENE) 13:24:54 435.822 SSB
TMSAT-1 15 Sep 13:20:15 13:21:23 11° 56° (NE) 13:22:31 436.925 FM
Uribyol 2 15 Sep 13:21:29 13:26:00 32° 66° (ENE) 13:30:32 436.500 FM
AO-Echo 15 Sep 13:33:51 13:38:18 40° 70° (ENE) 13:42:42 ?
Sapphire 15 Sep 13:40:45 13:46:09 85° 119° (ESE) 13:51:37 437.095 MHz 1200 baud AX-25 AFSK
Oscar 19 15 Sep 13:42:57 13:48:09 80° 257° (WSW) 13:53:23 437.125 CW, 437.150 USB
AO-27 15 Sep 13:49:09 13:54:10 54° 71° (ENE) 13:59:12 436.795 MHz FM
PCSat 15 Sep 14:08:30 14:13:48 55° 305° (NW) 14:19:09 145.825 MHz
Gurwin Techsat 1B 15 Sep 14:15:18 14:20:17 44° 69° (ENE) 14:25:18 435.225 FM
Oscar 16 15 Sep 14:21:37 14:26:19 34° 263° (W) 14:31:03 437.025 USB, Beacon 2401.1428
JAS-1B 15 Sep 14:40:23 14:49:18 63° 258° (WSW) 14:56:50 435.800 - 435.900 CW/SSB
Uosat F 15 Sep 14:43:20 14:44:40 11° 57° (ENE) 14:45:59 435.120 FM
AO-7 15 Sep 14:51:42 14:58:47 33° 57° (ENE) 15:05:50 29.400 - 29.500 MHz
ITAMSAT 1 15 Sep 14:55:06 14:59:55 39° 262° (W) 15:04:46 435.822 SSB
TMSAT-1 15 Sep 14:55:06 15:00:22 74° 74° (ENE) 15:05:40 436.925 FM
Uribyol 2 15 Sep 15:00:47 15:05:24 33° 263° (W) 15:10:04 436.500 FM
AO-Echo 15 Sep 15:13:33 15:17:14 22° 266° (W) 15:20:53 ?
RS-15 15 Sep 15:14:05 15:24:49 58° 246° (WSW) 15:36:00 29.354 - 29.394 USB, Beacon 29.352 USB
Sapphire 15 Sep 15:26:33 15:30:18 19° 319° (NW) 15:34:04 437.095 MHz 1200 baud AX-25 AFSK
AO-27 15 Sep 15:30:21 15:34:00 19° 268° (W) 15:37:40 436.795 MHz FM
Gurwin Techsat 1B 15 Sep 15:56:09 16:00:25 25° 266° (W) 16:04:44 435.225 FM
PCSat 15 Sep 15:56:19 15:58:29 12° 326° (NW) 16:00:39 145.825 MHz
Uosat F 15 Sep 16:17:37 16:22:37 81° 74° (ENE) 16:27:38 435.120 FM
TMSAT-1 15 Sep 16:38:04 16:40:50 14° 271° (W) 16:43:38 436.925 FM
JAS-1B 15 Sep 16:38:50 16:40:49 11° 274° (W) 16:42:46 435.800 - 435.900 CW/SSB
AO-7 15 Sep 16:42:51 16:51:04 63° 256° (WSW) 16:59:19 29.400 - 29.500 MHz
Oscar 10/S400 15 Sep 17:00:21 17:17:21 39° 151° (SSE) 17:48:16 145.825 - 145.975 CW/USB, Beacon 145.810 USB
JAS-2 15 Sep 17:02:13 17:06:47 30° 66° (ENE) 17:11:13 435.800 - 435.900 CW/SSB, 435.910 FM
OPAL 15 Sep 17:02:20 17:06:55 31° 98° (E) 17:11:25 ?
Hamsat 15 Sep 17:13:55 17:17:43 30° 69° (ENE) 17:21:31 145.90 MHz
Saudisat 1A 15 Sep 17:22:33 17:24:45 14° 109° (ESE) 17:26:57 436.775 MHz
RS-15 15 Sep 17:33:27 17:34:38 10° 267° (W) 17:35:48 29.354 - 29.394 USB, Beacon 29.352 USB
Uosat F 15 Sep 18:00:16 18:02:00 12° 271° (W) 18:03:44 435.120 FM
MaSat-1 15 Sep 18:32:09 18:35:59 37° 56° (NE) 18:39:16 437.345 MHz
OPAL 15 Sep 18:41:06 18:45:47 35° 295° (WNW) 18:50:24 ?
SO-67 15 Sep 18:42:32 18:45:40 33° 72° (ENE) 18:48:50 435.3500 MHz FM
AO-7 15 Sep 18:43:53 18:45:26 11° 275° (W) 18:46:59 29.400 - 29.500 MHz
HO-68 15 Sep 18:45:06 18:47:19 12° 47° (NE) 18:49:32 435.675 MHz FM
JAS-2 15 Sep 18:47:01 18:51:52 33° 263° (W) 18:56:33 435.800 - 435.900 CW/SSB, 435.910 FM
Hamsat 15 Sep 18:50:00 18:53:38 26° 265° (W) 18:57:18 145.90 MHz
Saudisat 1A 15 Sep 18:59:24 19:03:46 67° 306° (NW) 19:08:11 436.775 MHz
STRAND 1 15 Sep 19:14:22 19:19:08 38° 98° (E) 19:23:54 ?
KITSAT 1 15 Sep 19:32:45 19:39:44 34° 108° (ESE) 19:46:44 435.175 FM
MaSat-1 15 Sep 20:09:59 20:12:18 16° 259° (WSW) 20:14:25 437.345 MHz
SO-67 15 Sep 20:16:59 20:18:50 14° 268° (W) 20:20:41 435.3500 MHz FM
UKube-1 15 Sep 20:20:52 20:23:31 16° 63° (ENE) 20:26:09 145.840 MHz, 145.915 MHz
HO-68 15 Sep 20:26:35 20:33:29 56° 67° (ENE) 20:40:26 435.675 MHz FM
Saudisat 1A 15 Sep 20:42:22 20:44:12 12° 326° (NW) 20:46:03 436.775 MHz
Sapphire 15 Sep 20:45:53 20:49:11 16° 39° (NE) 20:52:29 437.095 MHz 1200 baud AX-25 AFSK
STRAND 1 15 Sep 20:53:52 20:58:10 28° 295° (WNW) 21:02:27 ?
PCSat 15 Sep 21:12:49 21:17:14 25° 45° (NE) 21:21:38 145.825 MHz
FUNcube-1 15 Sep 21:21:55 21:25:03 20° 65° (ENE) 21:28:15 145.950 - 145.970 MHz USB
